• In Deutschland
  • Länderverzeichnis
  • Für 7 Tage
  • Wassertemperatur
  • Satellitenkarten
  • Wetterkarte
  • Widgets
  • user-avatar
    Anmelden

    Stündliche Wetter Brisbane

    Heute, 25 April, Dienstag

    Zeit Temperatur Niederschläge Wind Luftdruck Luftfeuchtigkeit
    00:00 +17°C° 0 mm 2 m/S 763 mmHg 91%
    01:00 +17°C° 0 mm 2 m/S 762 mmHg 91%
    02:00 +17°C° 0 mm 2 m/S 762 mmHg 92%
    03:00 +16°C° 0 mm 2 m/S 762 mmHg 92%
    04:00 +16°C° 0 mm 2 m/S 762 mmHg 93%
    05:00 +17°C° 0 mm 2 m/S 762 mmHg 92%
    06:00 +18°C° 0 mm 1 m/S 762 mmHg 92%
    07:00 +19°C° 0 mm 1 m/S 762 mmHg 91%
    08:00 +21°C° 0 mm 1 m/S 762 mmHg 83%
    09:00 +23°C° 0 mm 1 m/S 762 mmHg 74%
    10:00 +25°C° 0 mm 1 m/S 762 mmHg 64%
    11:00 +26°C° 0 mm 1 m/S 761 mmHg 61%
    12:00 +27°C° 0 mm 1 m/S 761 mmHg 58%
    13:00 +27°C° 0 mm 2 m/S 760 mmHg 54%
    14:00 +27°C° 0 mm 2 m/S 760 mmHg 58%
    15:00 +26°C° 0 mm 3 m/S 760 mmHg 61%
    16:00 +26°C° 0 mm 2 m/S 759 mmHg 66%
    17:00 +24°C° 0 mm 2 m/S 759 mmHg 73%
    18:00 +21°C° 0 mm 3 m/S 760 mmHg 81%
    19:00 +19°C° 0 mm 3 m/S 760 mmHg 88%
    20:00 +19°C° 0 mm 3 m/S 760 mmHg 89%
    21:00 +19°C° 0 mm 3 m/S 760 mmHg 90%
    22:00 +19°C° 0 mm 3 m/S 760 mmHg 91%
    23:00 +18°C° 0 mm 3 m/S 759 mmHg 91%

    Morgen, 26 April, Mittwoch

    Zeit Temperatur Niederschläge Wind Luftdruck Luftfeuchtigkeit
    00:00 +18°C° 0 mm 3 m/S 759 mmHg 92%
    01:00 +18°C° 0 mm 3 m/S 759 mmHg 92%
    02:00 +18°C° 0 mm 3 m/S 759 mmHg 92%
    03:00 +18°C° 0 mm 3 m/S 758 mmHg 92%
    04:00 +17°C° 0 mm 3 m/S 758 mmHg 92%
    05:00 +18°C° 0 mm 3 m/S 758 mmHg 92%
    06:00 +18°C° 0 mm 3 m/S 758 mmHg 91%
    07:00 +19°C° 0 mm 4 m/S 758 mmHg 90%
    08:00 +21°C° 0 mm 4 m/S 758 mmHg 80%
    09:00 +23°C° 0 mm 4 m/S 758 mmHg 71%
    10:00 +27°C° 0 mm 4 m/S 758 mmHg 62%
    11:00 +28°C° 0,2 mm 4 m/S 757 mmHg 59%
    12:00 +29°C° 0,2 mm 4 m/S 756 mmHg 57%
    13:00 +30°C° 0,2 mm 4 m/S 756 mmHg 54%
    14:00 +29°C° 1,3 mm 5 m/S 755 mmHg 61%
    15:00 +27°C° 1,3 mm 5 m/S 755 mmHg 68%
    16:00 +26°C° 1,3 mm 5 m/S 755 mmHg 76%
    17:00 +25°C° 0,9 mm 5 m/S 755 mmHg 80%
    18:00 +22°C° 0,9 mm 5 m/S 756 mmHg 84%
    19:00 +21°C° 0,9 mm 4 m/S 756 mmHg 88%
    20:00 +20°C° 0,1 mm 4 m/S 756 mmHg 89%
    21:00 +20°C° 0,1 mm 5 m/S 757 mmHg 90%
    22:00 +19°C° 0,1 mm 5 m/S 757 mmHg 91%
    23:00 +17°C° 0 mm 5 m/S 757 mmHg 91%

    übermorgen, 27 April, Donnerstag

    Zeit Temperatur Niederschläge Wind Luftdruck Luftfeuchtigkeit
    00:00 +18°C° 0 mm 4 m/S 757 mmHg 90%
    01:00 +17°C° 0 mm 4 m/S 757 mmHg 90%
    02:00 +15°C° 0 mm 4 m/S 757 mmHg 89%
    03:00 +15°C° 0 mm 4 m/S 757 mmHg 88%
    04:00 +14°C° 0 mm 3 m/S 757 mmHg 87%
    05:00 +14°C° 0 mm 4 m/S 758 mmHg 86%
    06:00 +13°C° 0 mm 4 m/S 758 mmHg 85%
    07:00 +13°C° 0 mm 4 m/S 759 mmHg 84%
    08:00 +15°C° 0 mm 4 m/S 759 mmHg 75%
    09:00 +17°C° 0 mm 5 m/S 759 mmHg 65%
    10:00 +20°C° 0 mm 5 m/S 759 mmHg 56%
    11:00 +21°C° 0 mm 6 m/S 758 mmHg 52%
    12:00 +21°C° 0 mm 6 m/S 758 mmHg 48%
    13:00 +22°C° 0 mm 6 m/S 757 mmHg 44%
    14:00 +22°C° 0 mm 6 m/S 757 mmHg 45%
    15:00 +21°C° 0 mm 5 m/S 757 mmHg 47%
    16:00 +21°C° 0 mm 5 m/S 757 mmHg 49%
    17:00 +19°C° 0 mm 5 m/S 758 mmHg 49%
    18:00 +17°C° 0 mm 6 m/S 759 mmHg 49%
    19:00 +15°C° 0 mm 6 m/S 759 mmHg 50%
    20:00 +14°C° 0 mm 6 m/S 760 mmHg 52%
    21:00 +13°C° 0 mm 6 m/S 760 mmHg 55%
    22:00 +13°C° 0 mm 5 m/S 761 mmHg 57%
    23:00 +12°C° 0 mm 5 m/S 760 mmHg 60%

    28 April, Freitag

    Zeit Temperatur Niederschläge Wind Luftdruck Luftfeuchtigkeit
    00:00 +12°C° 0 mm 5 m/S 760 mmHg 63%
    01:00 +10°C° 0 mm 5 m/S 760 mmHg 65%
    02:00 +10°C° 0 mm 5 m/S 760 mmHg 69%
    03:00 +11°C° 0 mm 4 m/S 760 mmHg 72%
    04:00 +10°C° 0 mm 4 m/S 760 mmHg 75%
    05:00 +11°C° 0 mm 4 m/S 761 mmHg 73%
    06:00 +11°C° 0 mm 4 m/S 761 mmHg 71%
    07:00 +11°C° 0 mm 4 m/S 761 mmHg 69%
    08:00 +14°C° 0 mm 4 m/S 761 mmHg 62%
    09:00 +17°C° 0 mm 5 m/S 762 mmHg 56%
    10:00 +21°C° 0 mm 5 m/S 762 mmHg 49%
    11:00 +22°C° 0 mm 5 m/S 761 mmHg 49%
    12:00 +23°C° 0 mm 6 m/S 761 mmHg 49%
    13:00 +24°C° 0 mm 6 m/S 760 mmHg 49%
    14:00 +24°C° 0 mm 6 m/S 760 mmHg 52%
    15:00 +23°C° 0 mm 6 m/S 760 mmHg 55%
    16:00 +23°C° 0 mm 5 m/S 759 mmHg 58%
    17:00 +21°C° 0 mm 5 m/S 760 mmHg 64%
    18:00 +19°C° 0 mm 5 m/S 760 mmHg 70%
    19:00 +17°C° 0 mm 5 m/S 761 mmHg 76%
    20:00 +16°C° 0 mm 5 m/S 761 mmHg 77%
    21:00 +15°C° 0 mm 5 m/S 762 mmHg 79%
    22:00 +15°C° 0 mm 5 m/S 762 mmHg 80%
    23:00 +14°C° 0 mm 5 m/S 762 mmHg 81%

    29 April, Samstag

    Zeit Temperatur Niederschläge Wind Luftdruck Luftfeuchtigkeit
    00:00 +14°C° 0 mm 5 m/S 761 mmHg 81%
    01:00 +14°C° 0 mm 5 m/S 761 mmHg 81%
    02:00 +13°C° 0 mm 4 m/S 761 mmHg 80%
    03:00 +13°C° 0 mm 4 m/S 761 mmHg 78%
    04:00 +12°C° 0 mm 4 m/S 761 mmHg 77%
    05:00 +13°C° 0 mm 4 m/S 761 mmHg 76%
    06:00 +13°C° 0 mm 4 m/S 761 mmHg 74%
    07:00 +13°C° 0 mm 4 m/S 762 mmHg 73%
    08:00 +17°C° 0 mm 4 m/S 762 mmHg 66%
    09:00 +19°C° 0 mm 4 m/S 762 mmHg 59%
    10:00 +22°C° 0 mm 4 m/S 762 mmHg 53%
    11:00 +24°C° 0 mm 3 m/S 762 mmHg 50%
    12:00 +25°C° 0 mm 3 m/S 761 mmHg 47%
    13:00 +26°C° 0 mm 3 m/S 760 mmHg 44%
    14:00 +26°C° 0 mm 3 m/S 760 mmHg 47%
    15:00 +26°C° 0 mm 3 m/S 760 mmHg 50%
    16:00 +25°C° 0 mm 3 m/S 759 mmHg 53%
    17:00 +22°C° 0 mm 3 m/S 760 mmHg 64%
    18:00 +19°C° 0 mm 2 m/S 760 mmHg 75%
    19:00 +16°C° 0 mm 2 m/S 761 mmHg 86%
    20:00 +16°C° 0 mm 2 m/S 761 mmHg 87%
    21:00 +15°C° 0 mm 2 m/S 761 mmHg 87%
    22:00 +15°C° 0 mm 2 m/S 762 mmHg 87%
    23:00 +15°C° 0 mm 2 m/S 761 mmHg 85%

    30 April, Sonntag

    Zeit Temperatur Niederschläge Wind Luftdruck Luftfeuchtigkeit
    00:00 +15°C° 0 mm 2 m/S 761 mmHg 84%
    01:00 +15°C° 0 mm 2 m/S 760 mmHg 83%
    02:00 +15°C° 0 mm 2 m/S 760 mmHg 82%
    03:00 +15°C° 0 mm 2 m/S 760 mmHg 81%
    04:00 +14°C° 0 mm 2 m/S 760 mmHg 81%
    05:00 +14°C° 0 mm 3 m/S 761 mmHg 80%
    06:00 +14°C° 0 mm 3 m/S 762 mmHg 80%
    07:00 +14°C° 0 mm 4 m/S 762 mmHg 79%
    08:00 +18°C° 0 mm 4 m/S 762 mmHg 73%
    09:00 +20°C° 0 mm 5 m/S 762 mmHg 67%
    10:00 +22°C° 0 mm 5 m/S 762 mmHg 61%
    11:00 +23°C° 0 mm 5 m/S 761 mmHg 59%
    12:00 +25°C° 0 mm 5 m/S 761 mmHg 56%
    13:00 +26°C° 0 mm 5 m/S 760 mmHg 54%
    14:00 +25°C° 0 mm 5 m/S 760 mmHg 57%
    15:00 +24°C° 0 mm 6 m/S 760 mmHg 61%
    16:00 +23°C° 0 mm 6 m/S 760 mmHg 64%
    17:00 +21°C° 0 mm 6 m/S 761 mmHg 71%
    18:00 +20°C° 0 mm 6 m/S 761 mmHg 78%
    19:00 +17°C° 0 mm 5 m/S 762 mmHg 85%
    20:00 +17°C° 0 mm 5 m/S 762 mmHg 85%
    21:00 +16°C° 0 mm 5 m/S 762 mmHg 86%
    22:00 +16°C° 0 mm 5 m/S 762 mmHg 86%
    23:00 +15°C° 0 mm 5 m/S 762 mmHg 87%
    Mehr zeigen